Location: *
(46.1006°N, 1.8394°E)
Time: 05:26:17
(UTC+00:00)

Cosmos 405 Rocket - Pass Details

Date: 20 September 2019
Orbit: 491 x 554 km, 81.3° (Epoch: 22 October)

Event Time Altitude Azimuth Distance (km) Brightness Sun altitude
Rises 18:55:58 0° 165° (SSE) 2,556 5.9 -11.3°
Reaches altitude 10° 18:58:13 10° 155° (SSE) 1,680 4.9 -11.7°
Maximum altitude 19:01:27 30° 93° (E) 913 3.4 -12.2°
Drops below altitude 10° 19:04:44 10° 31° (NNE) 1,704 5.2 -12.8°
Sets 19:07:02 0° 21° (NNE) 2,600 6.2 -13.2°
